Погода в Семилетке

Россия / Республика Башкортостан     55°21′36″N   54°36′44″E
темп.,
°C
ветер,
м/с
пор.,
м/с
влажн.,
%
обл.,
%
осадки,
мм/ч
давл.,
гПа
погр.,
м
28 февраля, вс
вс2823:00−6юв61095100 3.2 1000448
02:00−7вюв5995100 0.8 999295
05:00−10всв589598 1.2 999210
08:00−11св469685 0.3 1000178
11:00−11с469687 0.5 1000238
14:00−9с4694100 0.2 1002341
17:00−9ссз589399 0.3 1004458
20:00−10ссз599599 0.2 1006301
1 марта, пн
пн123:00−12ссз599599 0.4 1009258
02:00−14ссз3797100 0.1 1011166
05:00−14ссз479698 0.3 1013199
08:00−16ссз469793 0.1 1014190
11:00−17сз469697 0.2 1017240
14:00−15сз3595100 0.0 1017299
17:00−15сз4695100 0.1 1019329
20:00−20зсз339984 0.0 101923
2 марта, вт
вт223:00−21зюз339961 0.0 102023
02:00−21зюз349945 0.0 101942
05:00−22ююз349731 0.0 101768
08:00−20ююз5109367 0.0 1015214
11:00−16ю6119282 0.0 1012313
14:00−12ю71392100 0.0 1009439
17:00−11ююз71293100 0.6 1007585
20:00−10ююз71392100 0.8 1005608
3 марта, ср
ср323:00−9ююз61394100 1.4 1004553
02:00−7ю61195100 1.3 1001540
05:00−5ю51095100 2.2 1000490
08:00−5ююз41095100 0.5 998360
11:00−4юз4794100 0.7 998327
14:00−2зюз469497 0.1 998495
17:00−4сз699599 0.9 999520
20:00−6сз61294100 0.7 1000487
4 марта, чт
чт423:00−9сз499697 0.8 1002192
02:00−7сз51195100 0.1 1003412
05:00−10сз61195100 0.4 1005294
08:00−14зсз5109798 0.0 1007211
11:00−11сз589599 0.1 1009324
14:00−9зсз5894100 0.0 1010376
17:00−9з5892100 0.1 1011430
20:00−12зюз479693 0.0 1012137